Theta_e
312 302 299 299 301 302 304 304 305 305 306 305 304 304 302 302 302 303 301 301 301 300 300 301 301 299 299 301 303 304 306 304 304 303 304 306 307 308 311 312 313 315 318 324 326 328 328 328 329 330 330 330 330 331 331 330 331 331 331 331 331 333 333 333 332 332 331 330 331 331 331 330 332 332 334 334 334 334 334 334 334 334 334 334 334 333
308 300 300 304 305 306 305 306 306 305 306 304 304 303 302 303 301 303 301 300 300 299 300 303 302 301 301 301 302 304 304 302 302 303 303 304 306 308 310 311 314 315 320 324 325 327 328 328 329 329 329 327 328 329 330 330 330 331 331 330 331 332 332 332 333 332 332 332 332 331 330 331 331 331 331 332 333 334 335 334 334 335 335 335 334 333
300 298 302 306 308 308 307 307 307 305 304 304 303 302 301 302 304 304 301 300 299 298 298 301 299 300 301 302 304 303 303 304 304 304 304 304 305 306 308 310 312 315 317 321 324 326 327 329 329 329 329 329 329 329 329 330 330 331 331 331 331 332 332 332 333 333 332 333 333 333 333 332 332 335 335 335 334 335 334 335 335 336 335 335 335 335
294 299 305 308 308 307 306 306 305 304 305 303 302 300 298 303 300 297 301 299 298 299 298 299 296 297 300 302 304 305 304 304 305 305 305 305 305 305 307 309 310 313 316 317 321 322 325 327 328 328 328 328 328 328 329 330 330 330 330 331 331 332 333 332 332 331 334 334 335 335 336 335 335 334 335 336 335 334 334 333 334 336 335 335 334 334
298 303 308 307 307 305 303 304 304 302 300 303 303 302 301 301 302 301 298 297 298 298 299 297 295 296 299 299 301 305 308 307 306 306 305 306 307 308 310 311 311 310 314 315 318 321 322 323 325 327 327 328 327 327 328 329 330 330 330 331 332 332 332 333 332 332 334 334 333 334 334 336 335 335 335 333 332 333 333 333 334 334 335 334 334 334
301 305 308 306 305 304 303 302 303 303 299 300 303 303 303 304 302 301 300 298 298 297 297 294 290 293 300 300 301 304 306 306 308 306 305 305 305 306 306 307 311 313 313 313 313 318 321 322 324 326 327 327 327 327 328 330 330 331 331 332 332 333 333 333 334 333 333 332 331 331 330 329 330 329 330 329 329 330 332 332 334 335 335 334 333 333
302 307 306 304 303 303 303 302 304 304 300 298 300 304 304 304 303 301 299 297 293 292 296 297 290 289 299 299 301 304 305 306 309 308 305 305 305 305 306 307 308 309 310 312 313 315 320 321 322 324 325 326 327 328 330 330 331 331 331 332 332 333 333 334 334 334 332 332 332 331 330 330 329 328 329 331 331 331 332 333 333 334 334 335 333 333
304 304 304 305 303 302 301 299 304 304 301 297 305 304 304 303 302 301 300 298 296 301 299 295 294 288 289 296 301 303 302 304 307 307 304 305 305 305 306 307 307 308 309 311 312 313 317 320 320 321 324 326 327 329 330 330 331 331 331 332 332 333 333 334 335 334 333 331 331 331 331 330 330 329 328 330 331 332 332 332 332 332 333 334 334 333
303 301 303 301 302 301 299 303 305 305 301 302 303 305 302 303 302 302 300 298 296 293 290 296 297 288 288 295 300 302 299 301 302 305 307 305 306 306 306 307 308 308 309 310 312 311 312 316 319 320 322 325 327 328 329 329 330 331 332 331 332 332 332 333 335 334 333 331 331 330 330 330 329 330 330 331 331 331 332 332 332 332 333 334 334 334
304 304 305 305 302 299 304 305 305 305 301 302 305 306 305 304 303 302 299 296 292 289 287 293 297 288 289 296 298 299 298 299 301 303 305 306 305 306 306 306 307 308 310 311 311 313 312 313 316 319 320 322 324 327 329 330 330 331 332 331 331 331 332 333 334 333 334 332 330 330 330 329 329 329 330 331 331 330 331 331 331 332 332 332 333 332
302 307 310 307 303 305 305 306 307 305 306 305 305 302 301 301 298 297 297 292 289 285 288 293 296 293 286 295 297 298 298 299 301 304 306 308 308 306 306 307 307 306 308 310 310 311 313 314 314 316 316 318 321 325 327 328 329 330 330 330 329 330 332 332 332 333 333 332 331 330 330 330 329 329 329 329 329 330 330 329 330 331 331 331 330 331
301 304 305 306 306 308 308 304 305 306 304 303 299 297 295 292 294 292 290 292 285 285 289 295 296 295 285 292 299 302 305 303 302 302 304 306 307 308 306 306 307 307 306 308 308 309 310 311 312 312 312 314 317 321 323 325 328 328 329 330 329 329 330 331 331 332 332 332 332 330 330 330 329 329 329 328 328 329 329 329 329 331 330 328 328 329
296 299 302 301 304 306 304 300 297 298 300 299 297 296 289 285 286 283 285 281 283 284 287 289 294 290 289 294 299 302 302 303 304 304 304 305 306 308 307 307 308 309 310 309 308 309 310 309 309 309 309 310 312 316 319 322 324 326 327 328 328 328 329 330 331 331 331 331 331 330 329 330 330 330 329 329 329 330 329 329 329 328 327 325 324 325
292 299 299 300 301 306 304 296 291 290 294 294 293 291 289 283 282 281 283 286 286 288 289 290 292 288 294 297 301 300 303 305 305 304 306 306 306 307 308 311 308 313 310 308 308 309 310 310 310 310 309 308 309 310 314 317 319 322 324 325 326 326 328 329 330 330 330 330 330 330 329 329 329 329 329 329 329 330 330 330 329 327 326 323 322 323
284 285 292 297 294 304 304 302 298 295 292 293 298 296 291 289 285 282 284 281 284 287 288 293 289 288 290 293 297 299 299 299 301 303 305 306 306 306 306 306 305 304 304 306 306 308 308 309 308 310 310 309 309 309 311 313 316 319 320 322 323 324 326 328 328 329 328 328 329 329 329 329 329 329 329 329 330 330 329 329 329 328 328 324 324 322
290 290 296 300 300 303 301 305 301 295 293 295 299 300 294 290 297 288 289 289 288 286 284 285 288 295 296 301 301 301 301 299 300 300 301 301 302 304 304 304 303 303 303 304 304 305 304 305 305 305 306 308 309 308 310 311 314 315 317 319 321 322 324 326 326 327 327 328 328 329 328 328 328 328 329 329 330 330 330 329 329 328 328 326 326 324
293 287 296 298 301 302 303 300 298 300 286 292 293 289 293 300 298 291 287 289 288 288 286 290 288 293 299 300 302 303 303 301 299 299 299 301 302 304 304 305 305 306 307 305 305 305 307 307 306 306 306 307 308 308 309 310 313 314 316 318 319 321 323 325 325 326 327 327 327 328 328 328 328 328 329 329 330 330 330 330 329 328 327 326 325 323
291 288 293 295 294 301 302 301 300 303 303 295 288 293 301 301 300 293 287 286 286 284 286 290 287 290 291 288 301 302 301 303 301 298 299 300 302 302 304 305 307 311 310 307 305 305 306 308 309 309 309 309 308 308 308 308 310 313 315 317 317 319 320 323 325 325 326 326 326 326 327 327 328 328 329 330 330 330 329 328 328 328 327 325 324 323
296 284 289 290 297 297 299 300 298 300 300 296 294 304 294 288 287 293 289 283 283 282 285 289 290 290 292 292 296 296 298 299 301 301 299 299 300 302 303 304 306 310 311 308 306 305 307 309 310 310 310 309 309 309 309 309 310 311 313 315 317 318 320 322 324 325 326 326 325 326 326 326 327 328 328 330 330 329 328 327 327 326 326 325 324 320
299 286 287 291 292 295 297 297 287 292 297 298 301 298 302 297 293 289 289 289 289 284 284 285 289 287 296 295 298 298 300 300 301 302 301 301 301 302 303 305 305 306 307 309 309 309 309 309 309 308 308 308 307 307 308 308 309 309 311 312 314 317 319 321 323 324 323 324 324 325 326 326 326 327 329 329 328 327 326 326 326 326 325 325 321 319
295 297 283 288 293 295 288 294 291 293 289 290 293 292 295 295 296 296 295 290 288 285 286 285 285 290 297 301 300 300 301 302 302 302 303 303 304 303 302 303 305 304 305 307 307 307 306 307 307 307 307 307 306 306 306 307 307 308 309 310 313 314 316 318 321 321 321 321 322 323 325 326 327 327 327 327 327 326 327 326 324 325 324 322 317 317
291 293 285 286 287 287 291 297 298 297 295 293 292 291 293 291 288 286 285 295 290 289 285 286 284 291 297 300 301 301 303 303 304 304 304 305 302 302 303 306 304 304 304 303 304 304 305 305 305 306 305 305 304 303 303 304 305 306 307 310 311 312 314 315 317 318 318 319 320 321 322 323 324 325 325 325 325 325 326 325 323 322 320 319 314 312
298 294 289 284 287 289 290 292 294 296 299 297 296 294 296 295 294 289 284 287 289 291 293 288 285 288 299 298 301 301 302 302 301 302 301 302 302 302 304 303 303 304 303 302 301 302 303 304 305 305 304 303 303 303 303 304 305 307 308 310 311 312 313 316 316 316 316 317 318 319 320 320 321 322 321 322 322 322 321 321 319 318 316 314 310 308
296 289 287 287 289 291 292 294 295 296 296 295 295 298 296 293 294 293 292 293 289 289 287 288 285 290 297 299 300 300 300 299 299 299 300 300 300 301 302 303 302 303 303 303 303 302 303 303 304 303 303 303 302 303 304 305 307 308 309 309 310 310 312 314 314 314 314 314 314 313 313 316 317 317 318 318 319 319 317 315 313 311 312 309 306 305
292 290 289 282 282 284 287 291 291 295 294 293 292 295 297 298 298 296 289 290 287 289 289 287 283 289 297 300 298 293 296 297 297 298 299 299 300 302 301 301 301 302 302 302 303 303 303 303 302 303 304 304 304 304 305 306 307 308 308 308 308 309 310 311 312 312 311 311 311 311 311 311 312 313 314 315 314 313 310 308 306 306 307 305 303 303
294 291 288 281 277 276 276 277 280 284 287 292 295 295 296 296 295 291 287 289 285 289 291 287 288 295 297 296 294 296 296 297 299 299 299 300 300 300 302 303 303 303 303 303 303 303 303 303 304 304 304 305 305 304 305 306 307 307 308 308 308 308 308 309 309 309 309 309 309 310 309 309 308 310 311 310 307 306 303 301 301 302 300 301 301 299
292 294 292 289 286 284 286 288 293 293 291 287 290 293 294 296 297 295 292 289 286 289 288 290 292 294 294 294 295 296 297 297 298 298 298 299 299 300 301 302 304 304 303 303 304 305 304 303 303 303 304 305 305 305 305 306 306 305 306 307 307 308 307 306 306 307 307 307 307 307 308 307 307 306 304 304 301 298 297 298 297 298 298 297 298 297
291 289 292 293 292 292 293 292 293 294 290 291 290 290 293 291 292 290 289 288 294 289 286 293 295 292 294 297 297 297 298 299 300 299 298 299 300 302 304 303 299 301 304 305 305 305 305 305 304 303 304 304 304 305 305 305 304 304 304 304 306 306 306 305 304 304 305 305 305 306 306 307 304 303 301 298 297 297 295 295 295 296 295 296 297 297
292 288 293 294 292 295 295 294 295 294 293 291 291 291 290 292 291 288 289 293 294 289 288 294 296 293 296 298 300 299 299 300 300 299 299 299 300 301 301 301 303 303 305 306 308 307 306 306 306 305 304 304 304 303 303 303 303 303 303 304 304 304 305 305 303 303 303 302 302 303 303 302 301 301 298 295 295 294 294 294 294 294 294 294 295 296
295 290 292 293 290 293 294 294 295 293 293 292 291 292 292 292 291 292 292 294 294 293 295 295 297 297 299 300 301 302 303 302 300 299 299 298 299 302 302 301 302 302 303 304 306 306 307 307 307 306 306 304 304 303 303 303 303 302 302 302 303 303 303 302 301 301 301 300 300 299 298 297 294 294 293 294 294 293 293 293 293 293 292 293 293 293
295 289 294 292 288 287 292 294 295 294 293 291 292 292 292 292 292 293 293 294 294 294 295 295 295 295 300 303 303 304 304 303 299 297 297 299 300 300 301 301 302 303 303 304 306 308 307 306 306 306 305 305 304 304 304 303 303 303 302 302 302 302 302 301 299 298 298 299 297 295 295 294 293 292 292 293 292 292 292 292 292 291 291 291 291 291
295 291 295 292 287 285 290 292 292 294 293 291 290 291 292 291 289 291 290 294 293 291 293 293 291 293 299 302 303 303 303 302 301 301 301 302 301 300 300 301 302 303 304 304 305 307 308 306 306 306 305 306 305 305 304 303 303 303 302 302 301 301 298 298 299 298 297 297 294 293 293 293 293 292 292 291 291 291 291 290 290 291 291 291 290 289
293 292 289 289 286 285 289 292 291 290 288 285 287 291 293 293 294 295 295 296 296 296 292 289 291 297 300 301 300 300 301 301 301 301 302 303 304 304 304 304 303 304 304 305 305 305 308 308 308 309 308 307 306 305 304 304 303 302 303 302 302 300 296 296 297 298 297 294 293 293 293 292 291 292 292 291 290 290 290 289 289 289 289 290 290 289
294 293 290 292 286 284 287 288 289 286 280 281 294 297 297 294 294 292 292 294 296 297 295 297 298 300 301 299 299 299 298 299 301 303 304 303 303 303 304 304 305 306 306 306 306 306 308 309 308 308 307 307 307 306 305 304 303 303 303 302 300 297 296 296 296 298 296 294 293 293 292 291 291 290 292 291 290 290 289 289 289 289 288 289 288 288
291 291 290 291 287 283 286 286 284 278 281 293 301 300 299 298 297 295 296 296 297 297 297 297 298 299 301 301 302 301 302 302 302 302 303 304 304 303 303 304 304 305 306 306 306 306 306 306 307 308 306 305 305 305 304 302 302 302 301 300 298 297 296 296 296 296 296 294 293 292 291 291 291 291 290 290 289 288 288 289 288 288 288 288 287 287
289 290 290 288 287 287 284 284 277 279 290 297 297 299 300 299 298 297 294 297 298 298 298 296 298 300 301 301 302 303 302 302 303 303 304 304 305 304 304 304 305 305 305 307 307 307 306 306 306 305 306 305 304 303 303 302 301 300 299 299 298 296 296 296 296 296 296 295 294 293 292 292 291 291 290 289 288 288 288 288 288 287 287 287 287 287
294 290 289 284 287 281 283 284 284 291 290 291 293 294 296 294 294 293 288 293 298 300 299 298 298 300 300 301 302 303 303 301 299 300 304 304 305 305 306 305 306 307 307 307 311 309 313 311 307 306 305 304 303 302 302 301 299 298 298 297 297 296 296 296 296 296 295 294 294 293 293 292 291 290 288 288 287 287 287 287 287 287 287 286 287 286
295 289 289 286 283 287 283 282 284 284 281 288 295 298 301 301 301 300 295 292 300 300 301 300 299 300 300 301 301 301 301 296 294 297 302 303 304 305 305 306 306 306 305 304 307 303 304 305 303 301 303 300 300 300 300 299 298 297 296 296 296 295 294 294 295 296 295 295 294 293 293 292 291 289 288 287 287 287 287 287 287 286 286 286 286 286
294 294 291 288 284 285 285 282 282 281 285 294 296 298 301 302 302 300 293 288 298 300 301 300 299 300 300 300 300 300 296 291 293 298 303 304 304 304 303 304 305 304 305 305 304 303 304 301 300 299 299 299 298 299 298 297 297 296 295 295 295 294 293 293 294 294 295 295 295 294 293 292 291 289 288 287 287 287 287 287 286 286 286 286 286 286
289 289 289 286 283 285 286 284 283 286 287 291 297 298 299 302 302 296 284 285 297 301 301 300 299 300 300 300 300 300 296 292 294 299 301 304 305 306 305 305 307 304 302 299 297 296 296 296 296 296 298 298 298 297 296 296 296 294 294 294 294 293 293 293 294 295 295 295 294 293 292 290 289 288 288 287 287 287 287 287 286 285 285 286 286 285
285 286 287 285 286 285 286 286 288 289 290 296 296 298 300 302 298 286 282 291 298 300 301 301 300 301 301 300 301 296 299 301 302 299 298 297 298 297 296 295 295 295 296 296 295 291 294 295 296 297 297 297 295 295 295 295 294 293 293 293 292 291 293 294 295 294 294 294 292 292 290 289 288 288 287 287 287 287 287 286 286 285 285 285 285 285
285 286 286 287 286 285 286 285 286 290 293 295 296 299 301 296 286 285 295 300 299 298 301 302 301 301 302 302 301 301 302 303 302 299 297 298 299 297 295 294 294 293 293 292 289 291 294 293 294 294 293 293 294 294 294 294 292 292 292 292 291 292 294 293 294 294 293 293 292 290 288 288 287 288 287 287 287 286 285 286 285 285 285 285 284 283
285 284 283 284 287 288 287 284 284 280 290 297 296 295 297 290 291 297 294 295 299 297 298 298 302 301 302 300 302 303 301 300 300 299 298 297 296 296 295 295 295 294 293 293 293 292 293 294 293 292 291 291 292 292 292 291 290 290 289 291 291 292 293 292 292 291 290 289 289 288 287 287 287 287 287 286 286 286 285 285 284 284 284 284 283 283
291 285 286 287 291 284 284 282 283 291 293 297 297 291 295 298 300 296 297 294 296 297 297 297 297 299 300 301 299 299 300 299 297 297 295 295 294 293 292 292 292 292 291 290 290 291 293 292 291 290 290 290 291 290 290 289 289 289 289 289 292 291 291 291 290 289 288 287 287 286 286 286 286 286 286 286 286 285 284 283 284 283 283 283 282 282
292 289 290 287 292 289 287 291 290 293 296 298 298 299 299 301 299 299 300 299 297 296 298 298 297 298 298 299 300 300 298 298 296 296 295 294 293 293 292 292 291 291 290 290 289 290 291 291 289 288 288 289 289 290 288 288 287 287 287 289 289 288 288 288 287 287 287 286 286 286 285 285 285 285 285 285 285 284 284 283 283 282 282 282 282 281
293 295 290 290 290 295 291 290 296 292 295 296 296 298 299 299 295 297 297 297 299 299 296 297 299 298 296 298 297 295 297 297 295 294 295 294 292 291 290 290 289 289 289 288 288 288 288 288 287 287 286 287 288 289 288 288 287 286 287 288 288 288 287 286 286 286 285 285 285 285 285 284 284 284 285 285 285 284 284 283 282 283 282 281 282 282
289 294 291 289 291 291 287 293 292 293 295 295 296 295 298 299 296 295 298 301 299 297 296 294 296 297 296 296 296 295 295 295 294 294 293 292 291 291 291 290 289 289 288 287 286 287 287 286 286 285 285 285 286 286 286 285 285 286 286 286 287 286 286 286 285 285 285 284 284 284 284 284 283 283 283 284 284 284 283 282 282 282 281 281 281 281
288 293 291 290 290 289 290 292 293 295 296 297 297 294 295 297 296 296 296 294 293 292 294 292 292 293 294 294 295 295 294 294 294 292 292 291 291 290 290 289 288 287 286 286 286 286 286 286 285 285 285 285 285 284 283 282 282 283 284 285 285 285 285 285 285 285 284 283 283 283 283 284 280 282 282 283 283 283 283 282 282 282 281 281 281 281
291 293 288 291 289 292 291 291 293 293 294 295 296 297 298 298 297 295 292 292 291 291 290 289 291 292 293 294 294 294 293 293 293 293 292 291 290 289 289 288 288 287 286 285 285 286 286 285 284 284 284 283 283 282 281 280 280 281 281 283 284 285 285 284 283 282 282 282 282 282 282 283 282 283 282 282 282 283 283 282 282 282 282 283 284 283
291 288 292 291 288 288 289 289 289 288 288 292 294 295 295 298 298 295 292 291 291 291 290 290 288 290 291 292 293 294 293 292 292 292 290 290 289 288 286 286 285 285 284 284 284 284 284 283 283 283 283 282 281 280 279 278 279 279 280 281 282 283 283 282 282 281 281 281 281 281 281 281 281 281 281 281 281 281 281 280 282 282 282 282 283 283
291 291 292 289 288 289 293 294 295 296 296 295 296 296 296 297 297 294 292 292 292 292 291 290 289 289 289 289 290 293 293 292 292 292 290 288 287 287 286 286 285 284 284 284 283 282 282 282 282 282 280 279 278 277 277 276 277 277 277 278 280 282 282 283 282 281 280 281 281 280 281 281 280 280 280 280 280 280 280 280 280 281 280 280 282 282
Wind_Speed
9 15 15 17 16 14 15 17 17 16 9 11 13 12 13 11 8 6 5 5 3 5 12 14 16 15 15 13 12 12 9 8 9 10 11 10 10 9 10 10 11 12 11 8 9 12 14 15 13 13 12 12 13 14 15 16 16 16 15 13 13 12 13 11 10 10 10 10 9 8 9 8 9 8 8 7 7 9 8 9 9 9 9 9 8 8
9 16 18 16 18 19 18 17 17 14 10 13 13 14 12 11 11 6 6 8 4 5 7 10 14 17 14 14 13 12 12 12 12 12 13 13 12 11 12 12 12 11 7 8 9 11 13 13 14 13 12 13 15 14 15 16 16 16 16 16 15 13 14 14 13 11 11 11 11 10 10 9 8 9 9 9 8 9 8 10 10 9 10 9 9 9
10 16 16 19 18 17 17 18 17 16 14 13 12 10 10 10 9 5 2 8 5 5 10 11 14 16 16 16 15 14 14 13 12 12 13 12 12 11 11 12 11 9 10 11 11 12 12 14 15 14 13 13 15 15 15 14 15 16 16 16 15 14 14 15 14 12 12 12 11 11 10 10 8 9 9 9 10 10 10 10 10 10 11 10 10 10
14 15 15 17 17 18 17 17 17 14 12 12 11 9 10 8 8 5 9 8 7 6 4 6 10 12 15 16 18 17 16 14 14 14 14 12 13 12 13 11 10 11 11 12 13 15 14 15 14 14 13 14 13 13 14 15 16 14 15 16 16 15 14 13 15 12 12 12 12 11 10 11 10 9 10 11 11 11 12 12 11 10 11 11 11 11
7 5 16 15 16 18 18 17 16 13 12 12 12 11 10 10 9 9 3 6 6 10 9 11 13 14 15 16 15 16 19 19 18 16 15 14 12 12 9 9 10 12 12 12 13 14 14 15 16 17 16 14 14 14 15 15 15 13 17 17 16 14 15 13 13 14 13 12 12 11 11 9 10 10 9 10 10 12 11 10 10 11 12 11 11 9
9 10 16 18 15 14 16 16 18 15 13 10 10 10 11 10 10 7 4 2 5 7 9 9 6 8 9 18 18 12 13 20 19 18 18 15 14 12 13 13 11 10 10 12 13 14 15 16 15 15 16 16 15 16 16 16 17 16 15 16 15 13 13 14 15 16 14 13 12 12 11 11 10 11 12 12 12 12 11 11 10 10 11 11 10 9
10 14 19 18 16 14 17 16 17 16 13 12 8 12 11 11 8 6 5 1 5 6 3 4 9 9 5 9 6 8 14 19 17 19 17 14 13 12 11 12 12 12 11 11 10 10 13 13 14 15 16 17 16 16 15 15 16 18 15 15 16 14 13 13 13 16 13 14 12 14 15 13 13 13 12 11 9 8 9 8 10 10 11 12 10 10
10 16 17 16 17 16 15 16 16 15 11 11 5 10 12 11 9 7 6 6 7 7 5 8 7 10 11 11 11 11 9 11 17 18 16 15 15 14 13 13 12 12 12 11 12 12 12 14 15 16 17 16 17 16 15 15 15 17 17 16 16 13 13 12 13 16 15 15 15 16 15 13 13 14 14 13 11 10 9 10 10 9 9 11 12 11
21 15 18 19 17 14 17 16 12 15 12 4 7 6 9 9 9 6 7 9 4 6 8 7 8 6 10 5 3 8 12 13 14 15 14 14 15 15 15 13 13 14 13 13 11 13 14 14 15 14 15 16 16 13 14 14 14 15 15 15 15 15 14 14 15 14 17 14 13 14 14 11 11 13 13 10 10 11 11 12 11 11 11 12 11 11
9 17 17 19 14 12 13 13 11 15 14 5 4 4 4 7 4 7 7 6 1 3 11 8 7 7 14 7 9 7 11 13 13 13 15 14 14 15 13 13 13 12 12 12 14 13 14 14 13 14 12 12 13 12 12 12 11 12 13 15 16 16 14 14 16 15 16 16 12 14 15 16 15 12 12 11 11 11 11 12 13 11 11 10 9 9
4 4 16 11 14 13 13 13 13 17 10 11 9 8 6 4 3 1 3 1 1 9 11 8 10 8 11 5 9 8 8 9 9 9 11 14 14 14 14 13 12 10 11 11 12 11 11 11 11 10 12 13 11 10 12 12 12 12 13 15 17 17 14 14 15 16 17 16 15 15 14 16 16 15 13 13 13 12 12 12 12 12 9 7 6 7
8 7 10 3 6 8 13 9 3 7 13 13 6 9 8 4 2 2 2 3 5 8 3 6 10 10 11 2 4 8 7 6 8 11 11 12 14 12 11 12 12 11 10 10 9 10 9 8 9 10 12 12 12 11 12 12 11 12 13 14 16 16 16 14 14 16 16 15 17 16 15 15 16 16 13 14 14 14 14 13 12 9 7 9 10 10
8 10 5 7 3 15 13 12 3 6 8 8 10 11 9 5 3 4 4 6 11 7 1 1 5 7 21 14 12 10 6 6 9 9 10 11 12 13 11 12 9 10 10 9 8 9 9 10 10 11 12 11 11 12 14 13 12 12 13 15 16 16 17 15 15 16 16 16 16 16 16 14 13 15 15 14 13 12 14 13 10 8 8 7 8 8
5 4 7 8 4 13 17 13 8 6 9 11 14 12 11 9 8 8 7 3 4 4 8 4 4 10 12 9 14 18 17 15 13 13 12 12 12 9 6 4 5 3 3 5 6 7 7 7 7 7 7 9 9 10 10 11 11 11 11 14 16 17 16 15 15 16 16 17 16 16 15 14 13 14 14 14 13 10 9 7 9 9 9 10 10 10
10 8 10 16 9 14 20 17 17 10 14 10 8 11 8 5 4 8 6 8 8 4 7 8 4 6 1 2 7 4 4 3 5 8 11 8 5 6 5 4 4 4 3 3 3 4 4 2 1 2 4 5 6 7 8 9 10 10 11 13 16 15 15 17 17 15 17 15 16 15 15 14 13 14 13 13 12 10 10 10 11 11 12 8 9 9
11 2 6 12 3 17 18 11 10 14 7 5 2 5 9 10 4 7 1 5 6 3 4 6 7 3 4 6 4 6 6 7 7 10 9 10 9 6 6 6 6 6 5 4 3 4 5 5 4 4 5 6 6 8 8 9 9 10 12 13 15 16 15 16 16 15 15 15 13 15 15 15 14 11 10 10 9 10 11 11 11 11 13 10 10 9
11 8 12 9 8 18 19 12 12 17 10 8 4 8 3 5 7 4 1 3 3 2 10 5 6 10 10 15 15 16 14 11 9 8 9 12 13 11 8 8 7 5 4 3 4 4 4 4 6 7 8 7 7 7 9 9 9 10 10 10 13 14 13 15 16 15 14 14 14 15 15 15 15 14 14 13 11 12 11 10 11 9 13 10 9 8
14 9 3 4 13 12 2 16 16 17 7 10 8 9 5 3 6 5 8 3 3 9 7 8 13 8 5 8 2 10 13 13 9 9 8 9 9 10 11 11 7 6 7 7 7 7 7 7 7 7 7 8 8 8 8 9 7 7 9 9 12 12 14 14 14 15 14 15 14 14 15 15 15 14 15 14 12 12 10 9 9 10 12 10 10 10
14 8 1 4 7 3 0 8 12 2 5 10 10 9 10 7 9 8 1 10 9 9 6 9 11 11 11 11 1 3 7 6 7 9 9 9 9 9 9 9 7 1 2 4 7 7 7 7 7 7 7 6 6 6 6 6 7 7 8 9 10 12 12 12 10 11 11 12 10 10 13 15 14 13 13 12 10 10 11 11 11 11 12 10 11 9
8 7 4 3 1 4 3 8 12 9 0 3 1 11 10 4 9 9 9 2 2 7 4 4 7 10 9 13 13 15 9 8 8 7 10 11 11 9 7 3 2 2 3 3 3 4 4 4 4 5 5 6 6 6 5 5 5 7 7 8 8 8 9 10 11 10 11 10 8 8 9 12 12 12 10 9 10 10 11 11 12 12 11 11 9 10
9 5 8 4 1 6 8 7 12 15 12 8 9 11 10 5 4 4 4 7 4 4 6 8 9 9 7 9 9 12 13 11 12 11 6 7 4 2 1 2 2 2 2 2 2 3 3 3 3 3 3 2 2 2 2 3 4 4 5 7 8 9 8 8 9 7 5 6 8 8 8 7 8 9 8 10 11 12 12 11 11 10 9 8 10 9
5 8 11 8 5 8 2 5 6 13 10 10 11 12 13 10 6 8 8 5 5 6 7 5 12 7 4 4 7 8 7 9 11 10 9 6 1 1 1 1 1 2 3 3 4 4 3 3 3 2 1 1 2 2 2 2 3 4 6 6 7 8 8 9 8 7 8 8 8 9 10 11 10 10 9 10 11 11 11 9 9 8 9 10 9 10
6 6 13 10 7 8 3 1 5 6 7 10 9 9 9 9 8 6 10 8 5 9 6 4 6 8 9 5 6 4 5 5 1 2 6 5 3 3 1 1 2 3 3 3 3 3 3 3 3 2 1 2 2 2 3 4 4 5 5 6 5 7 8 8 7 5 5 7 7 9 8 7 7 7 7 8 7 8 8 7 7 8 9 9 9 8
13 5 12 8 5 4 5 4 4 3 2 9 9 10 13 15 16 13 6 0 7 6 7 7 10 7 9 6 5 4 4 3 1 4 6 5 1 1 2 3 3 3 2 1 2 3 3 3 2 3 4 4 4 4 4 5 5 5 5 6 5 6 6 6 6 7 7 5 4 2 3 5 6 8 9 10 9 8 6 6 6 7 9 9 8 10
9 6 12 9 6 2 2 2 3 2 3 9 12 15 17 14 14 6 2 0 3 7 9 8 13 12 7 6 4 2 2 3 6 6 3 3 2 1 2 2 3 3 3 3 3 3 3 4 5 5 4 4 5 5 5 5 5 5 5 6 6 6 6 5 5 7 8 7 5 6 5 5 5 7 8 8 6 7 5 5 6 6 8 8 8 9
2 10 12 14 15 13 11 12 16 16 21 13 14 15 15 19 20 8 7 4 8 5 10 9 12 13 1 1 4 5 6 8 7 4 1 3 4 4 3 4 3 2 2 3 3 4 5 4 3 4 5 5 5 5 5 5 5 4 4 5 4 5 6 7 7 8 8 8 7 6 6 6 5 6 6 5 4 4 4 5 5 6 5 8 10 8
4 10 7 9 14 11 2 2 8 12 9 6 11 14 14 9 12 10 3 8 13 7 9 11 16 17 6 6 8 7 8 10 9 4 5 5 4 4 4 4 2 1 2 3 4 3 3 3 4 4 4 5 5 6 5 5 5 5 5 5 6 5 5 7 7 8 8 7 7 7 6 3 3 3 3 3 3 3 4 4 5 6 7 6 8 9
4 7 10 16 15 12 9 12 15 17 15 13 13 12 10 13 10 8 11 16 16 9 14 16 23 19 21 11 5 10 11 10 5 5 5 4 4 4 4 3 3 3 3 4 4 4 3 1 1 3 4 5 4 4 4 5 6 6 6 6 6 6 6 5 6 7 7 6 6 6 6 6 3 2 2 3 3 4 4 4 4 4 4 6 8 9
10 11 12 11 11 8 13 13 16 16 18 18 23 21 19 19 19 16 17 21 19 15 18 20 16 19 25 15 13 9 8 9 8 7 4 2 2 1 2 3 3 3 3 2 1 1 1 2 2 3 5 5 5 6 6 6 6 6 7 7 7 7 7 6 4 4 4 4 5 5 5 5 4 4 4 4 4 4 4 4 4 4 5 5 6 6
6 6 12 11 8 6 10 14 15 17 14 13 17 19 20 20 22 24 23 23 22 17 21 19 12 20 19 9 10 13 11 9 4 5 3 2 3 2 2 4 5 5 5 3 2 1 2 2 3 3 5 6 7 7 7 7 8 8 8 8 8 7 6 5 5 4 5 5 5 3 3 4 3 4 4 5 5 5 5 5 5 5 5 5 4 4
11 7 12 9 7 3 4 11 13 15 16 16 18 20 21 20 21 24 25 24 19 20 24 23 16 17 18 7 7 7 7 7 5 2 5 7 6 7 8 9 8 7 6 4 2 3 3 3 3 4 5 7 8 9 8 8 7 7 7 8 8 7 6 5 6 4 4 5 2 1 2 3 4 4 5 5 5 5 6 6 6 6 6 5 5 6
9 5 14 11 8 3 4 10 13 12 10 10 13 17 20 22 22 25 22 19 14 20 24 18 12 17 15 7 9 10 10 11 11 9 8 7 9 10 11 12 12 9 6 5 5 4 4 4 5 5 6 7 7 7 7 7 7 7 7 8 9 7 6 6 6 6 5 2 2 2 2 2 3 4 4 5 6 6 6 7 7 7 8 8 7 6
12 7 11 13 12 6 8 10 12 6 5 6 12 20 28 29 25 17 16 14 21 22 13 13 19 22 2 4 6 5 8 11 11 11 13 15 13 11 11 11 10 11 10 8 7 6 4 4 5 5 5 5 6 6 7 7 6 6 6 7 7 5 7 6 6 6 5 4 4 3 4 3 3 3 4 5 4 6 6 7 7 7 8 9 8 8
14 12 8 12 8 6 7 6 7 7 10 13 19 24 23 22 23 18 18 22 21 16 16 19 19 8 5 5 5 7 10 11 12 13 12 11 11 15 17 18 15 8 8 8 7 7 5 4 4 5 6 5 5 6 5 7 7 5 5 6 6 7 6 7 6 6 7 6 5 5 5 5 4 4 4 4 5 5 6 7 7 5 4 6 6 8
16 14 7 8 6 9 10 11 8 13 16 16 5 12 21 22 19 21 22 19 20 23 25 24 21 18 10 6 6 8 9 10 11 13 14 14 15 15 16 14 13 11 9 8 6 5 7 7 5 3 4 5 5 5 5 5 6 6 6 6 6 6 6 6 7 6 6 7 6 6 6 6 5 5 5 5 3 3 4 6 5 5 5 6 8 8
13 13 7 3 5 6 7 10 10 17 13 6 2 10 16 18 21 17 19 21 26 26 26 24 26 20 15 15 12 8 8 10 10 13 14 14 14 15 14 13 11 11 12 8 5 6 5 6 7 6 4 3 4 4 4 6 7 7 7 7 7 7 7 7 7 6 6 6 6 6 6 6 6 6 5 5 4 4 4 4 5 7 6 5 4 3
15 9 8 5 3 11 10 11 15 3 3 7 10 8 16 16 18 20 16 20 24 20 21 23 25 20 16 16 14 11 6 6 9 13 14 16 17 17 15 14 12 11 11 11 1 1 1 2 4 3 4 4 4 4 4 5 7 8 7 7 6 6 7 7 7 7 7 6 6 7 7 6 6 6 4 4 5 6 5 5 5 4 3 5 5 5
11 12 6 13 3 6 11 8 5 8 10 16 24 18 20 14 14 15 12 14 11 20 19 19 18 15 16 16 14 10 4 7 12 15 11 17 20 15 12 12 12 11 11 8 3 2 5 3 2 2 4 5 5 5 4 4 6 7 8 7 7 7 6 7 8 7 6 6 6 6 6 7 7 5 5 5 6 6 4 4 3 4 4 6 7 6
2 5 4 12 5 6 8 8 9 11 20 4 9 15 15 11 12 14 6 17 12 20 19 20 19 16 15 15 15 10 6 8 16 11 4 9 9 11 13 12 13 12 9 4 2 3 1 3 3 3 3 4 6 6 6 6 6 6 6 6 6 6 6 6 6 5 6 5 6 6 6 6 6 5 6 6 6 5 5 5 5 5 4 4 4 5
7 9 8 7 7 10 11 10 12 10 12 6 10 13 18 16 16 13 5 18 7 17 19 20 19 16 16 19 18 12 13 13 18 2 5 5 5 2 3 3 2 2 2 2 3 3 2 2 2 1 1 1 2 5 6 6 5 5 5 6 6 6 7 7 6 5 4 4 5 6 6 5 6 5 6 6 5 5 5 4 5 5 5 4 3 4
9 7 10 14 11 13 16 8 6 6 2 7 12 17 17 19 18 12 20 1 12 20 22 20 21 21 21 18 11 10 15 17 9 8 5 6 6 4 4 3 2 1 1 1 1 3 1 1 1 1 3 4 4 4 5 5 6 5 5 6 6 5 6 6 7 6 6 6 6 6 6 4 5 7 6 5 6 5 5 5 6 6 6 6 5 5
7 4 5 2 7 11 13 14 11 5 2 11 8 16 18 15 11 16 2 1 8 3 3 14 16 13 10 12 12 13 13 12 8 4 6 5 5 5 4 3 3 3 3 3 3 1 1 2 3 4 5 4 4 4 4 5 6 6 6 6 6 5 4 5 6 6 6 7 7 5 5 5 4 4 5 5 6 6 5 4 5 5 6 4 6 7
16 15 15 15 10 8 5 10 6 13 12 19 15 7 14 13 4 7 4 4 3 6 8 5 10 10 9 9 9 11 11 7 5 6 5 6 6 5 4 4 4 3 3 3 3 4 1 3 4 6 6 5 5 4 2 3 4 4 4 4 3 3 4 5 5 6 6 5 5 5 5 5 6 5 5 6 6 7 7 6 6 5 5 6 6 6
11 7 7 6 10 14 17 14 11 5 11 17 16 13 9 2 1 10 9 7 3 5 8 8 6 7 8 9 9 10 8 4 3 5 6 5 5 5 5 5 4 4 4 3 3 3 3 5 6 6 7 6 5 4 3 3 3 3 3 3 4 4 4 4 4 4 5 5 5 5 4 5 5 4 4 5 6 6 7 6 6 5 5 6 6 5
13 16 12 13 16 13 11 6 1 9 18 11 12 10 14 8 2 3 6 8 9 4 3 6 8 6 8 7 4 3 3 4 4 6 6 6 6 5 5 4 4 4 4 4 4 4 4 6 7 7 8 6 6 4 2 2 4 4 4 3 4 2 3 3 4 4 4 4 4 4 4 4 3 5 5 5 6 7 5 6 6 5 4 4 4 4
14 15 4 2 4 10 0 3 2 2 14 17 1 4 18 9 3 2 6 8 5 6 9 6 4 6 5 4 5 2 5 4 6 5 5 7 6 6 6 5 5 5 5 5 5 6 6 7 7 7 8 7 6 4 3 2 3 5 3 4 3 4 4 5 5 5 5 4 4 5 5 5 4 4 4 4 2 3 3 7 8 6 5 5 4 4
4 16 8 7 3 8 15 11 10 9 8 12 6 1 5 7 6 4 3 3 4 4 5 5 4 5 8 8 8 6 4 4 6 5 6 6 6 6 6 6 5 4 5 5 4 4 6 6 7 7 7 7 4 5 4 5 5 5 4 3 3 4 5 5 5 6 5 5 4 4 4 5 3 3 3 2 3 2 3 3 3 4 5 5 5 5
5 5 10 8 7 14 4 10 7 10 12 10 6 8 6 7 5 1 2 3 4 4 4 5 4 5 6 7 4 6 6 5 8 8 6 5 6 6 6 6 6 6 5 5 4 4 6 7 8 8 7 6 5 5 5 6 6 5 5 4 4 4 5 5 5 5 5 5 4 3 3 3 5 4 3 2 3 3 3 3 3 4 5 8 8 8
3 11 9 13 8 5 4 4 7 11 8 10 5 5 9 11 10 7 5 4 4 6 6 4 3 3 5 5 5 5 8 5 6 7 7 6 6 6 5 6 5 6 6 4 3 4 6 8 8 8 8 7 5 5 6 6 5 4 4 3 3 3 5 5 6 6 6 4 4 4 3 2 3 2 2 2 1 1 2 3 4 4 2 3 4 6
10 14 13 12 12 10 16 15 12 12 10 13 9 9 8 12 13 9 6 3 4 7 6 7 4 4 3 3 2 6 10 8 7 9 9 6 7 7 7 6 6 6 6 5 5 7 8 8 8 9 8 6 5 6 6 5 5 5 3 3 2 3 6 6 5 5 4 3 3 3 3 3 2 1 2 2 1 1 0 5 3 3 0 2 6 4
16 18 14 13 18 18 14 9 13 9 3 10 14 16 12 9 9 11 12 10 6 5 6 9 9 5 2 2 3 3 7 7 8 8 9 7 7 6 7 7 7 6 6 5 7 8 8 8 7 8 8 6 5 5 6 5 5 5 5 4 3 3 5 5 5 4 4 3 3 3 3 2 2 2 1 1 1 1 1 1 0 1 2 4 4 1
Wind_Direction
169 176 187 198 195 182 189 200 208 222 238 207 216 222 226 224 224 202 200 141 149 270 255 258 263 264 266 262 255 250 232 216 238 246 245 241 236 223 215 212 214 214 216 202 199 187 190 191 192 194 196 196 200 204 203 204 207 207 207 201 205 197 205 200 196 202 202 204 203 206 207 208 211 214 214 211 218 223 222 217 209 203 204 210 204 209
195 194 205 199 189 183 186 199 211 221 211 213 221 225 230 237 244 199 207 151 157 212 262 251 259 257 263 263 257 253 240 225 235 241 242 243 238 230 218 216 213 214 196 190 187 185 188 191 191 191 194 194 197 202 205 205 204 206 207 207 208 202 202 205 200 196 199 203 204 201 205 205 206 208 211 210 210 220 223 222 213 209 209 206 203 208
204 210 201 196 194 188 192 199 205 214 208 219 224 218 234 232 232 252 160 144 166 197 264 263 261 265 258 256 255 250 249 243 236 237 243 245 242 235 228 221 213 198 199 195 191 183 188 190 191 192 193 196 200 199 205 206 204 205 207 209 206 204 201 203 202 196 198 200 203 200 199 199 202 211 211 213 214 211 217 220 217 213 215 210 207 206
196 217 197 189 192 196 197 200 200 207 214 215 219 225 224 242 240 247 198 173 183 203 279 293 284 274 267 259 251 244 246 249 240 233 236 234 242 241 233 223 209 203 204 203 192 188 189 189 190 194 196 197 196 200 202 204 205 205 208 208 207 207 203 201 202 199 197 197 199 204 205 199 207 207 212 221 224 220 220 221 216 215 216 212 214 214
174 155 180 180 190 195 198 198 198 202 211 217 223 224 227 229 234 250 68 183 190 230 241 268 274 269 256 255 246 235 230 241 243 240 232 228 228 236 242 240 222 215 205 207 201 193 187 188 194 196 197 194 196 199 201 202 203 206 207 207 205 206 207 203 196 196 199 192 201 207 213 216 211 221 221 219 220 221 217 215 212 214 212 212 213 210
192 154 169 181 179 189 196 197 201 199 216 207 221 227 236 246 243 225 227 271 265 275 204 214 289 263 234 229 239 236 209 224 233 234 227 224 218 218 225 225 222 226 223 217 211 196 188 190 193 195 196 197 200 200 203 201 203 205 206 205 204 205 206 204 200 194 196 196 195 199 202 207 211 213 213 215 216 215 213 212 216 219 216 212 210 210
184 169 176 177 173 190 196 197 193 197 216 217 213 202 227 243 243 240 234 190 265 260 59 188 243 274 314 294 265 252 234 227 223 225 218 215 216 213 213 216 218 219 220 226 229 208 191 192 189 195 197 199 201 204 197 198 203 203 203 203 202 203 205 201 198 192 196 200 198 201 205 207 209 213 219 218 220 217 214 212 213 215 214 212 208 209
149 178 169 173 178 187 194 207 198 195 212 227 122 183 214 227 229 232 234 244 262 313 292 215 241 279 286 272 246 240 249 243 230 219 211 217 214 215 209 209 212 214 214 210 213 211 205 194 192 196 198 197 203 199 193 199 199 199 201 199 202 202 202 200 197 194 195 203 206 207 210 209 210 211 214 210 213 215 214 212 211 209 210 210 212 213
167 171 175 174 182 186 200 203 182 188 211 215 145 196 201 213 229 234 246 252 300 350 276 245 213 258 248 256 168 208 241 234 238 238 224 217 218 216 212 207 205 207 208 207 205 207 206 203 200 200 198 202 202 196 196 196 196 197 198 199 199 202 201 202 197 195 196 200 205 210 212 208 212 216 216 210 207 207 210 212 208 209 207 209 207 210
186 172 175 174 181 198 196 199 174 183 212 126 152 175 205 209 236 247 234 238 334 243 254 235 217 255 272 252 252 208 228 239 235 231 235 233 222 214 210 210 206 207 210 211 215 209 206 205 203 202 201 199 200 198 196 196 193 194 194 197 199 202 201 200 200 201 201 197 201 212 213 214 211 212 214 208 203 204 205 212 213 207 209 207 198 196
127 170 178 189 194 192 186 193 180 191 200 126 139 139 120 148 164 97 215 134 245 252 252 224 233 240 292 240 229 214 229 223 228 232 232 230 226 214 205 204 205 205 205 207 214 217 210 205 202 192 199 202 193 190 191 193 194 191 193 198 201 204 201 200 200 196 202 201 201 214 212 212 214 212 210 208 210 204 203 207 208 209 196 172 191 193
127 122 169 179 181 186 189 158 86 154 133 139 140 144 126 82 119 160 191 193 228 245 62 203 214 207 245 205 196 229 245 227 223 235 238 237 236 227 200 200 201 204 206 204 205 214 211 197 194 190 200 197 191 182 191 196 192 193 194 195 201 204 203 202 199 197 201 202 203 210 216 215 216 215 212 211 208 203 202 204 206 201 172 171 187 189
148 175 125 122 269 177 148 121 118 124 160 152 155 158 156 172 148 196 176 205 221 247 84 10 155 234 239 245 278 265 251 255 242 238 241 244 245 241 210 199 202 201 194 198 198 205 203 201 196 195 201 194 193 193 193 194 193 194 196 197 200 204 202 203 199 201 200 201 206 207 213 216 216 219 218 216 216 207 204 201 194 170 179 173 172 178
157 125 158 152 175 181 157 159 153 169 191 171 174 170 178 168 185 214 193 247 280 187 158 184 193 260 276 283 228 241 248 246 240 241 250 255 260 262 272 223 229 214 156 184 197 208 214 207 218 210 199 195 199 199 192 193 195 196 199 201 203 207 200 200 202 203 203 204 205 205 208 212 216 218 218 219 219 207 191 185 186 179 180 180 179 173
148 183 208 163 196 178 191 189 179 163 163 183 172 183 195 169 184 202 192 209 224 256 164 156 133 249 264 85 11 21 4 334 282 264 258 258 254 265 265 257 257 249 238 213 223 224 227 212 190 219 214 203 200 207 206 198 198 198 202 204 207 208 202 199 201 201 204 206 203 203 205 208 213 217 215 218 217 203 192 196 197 192 195 179 180 171
183 33 148 180 8 181 193 184 132 118 113 178 215 204 211 209 181 232 254 237 212 151 164 196 227 290 249 35 279 240 226 224 237 246 252 256 248 241 252 242 229 229 216 189 213 242 239 228 226 232 242 233 218 206 207 207 205 207 209 208 208 209 202 200 199 201 202 201 201 202 203 206 209 211 211 214 206 198 198 197 199 197 198 184 179 177
169 209 158 166 211 183 188 142 150 138 168 175 185 209 203 351 235 215 108 96 39 311 256 178 253 256 277 272 252 255 259 221 198 222 235 243 244 241 248 249 241 214 186 166 199 233 236 208 205 211 215 214 214 212 210 209 205 210 214 214 213 211 206 204 201 202 197 197 197 200 201 202 206 208 207 209 193 189 201 197 198 194 203 178 167 163
165 122 65 170 175 181 250 158 162 169 128 141 210 201 116 55 353 231 223 133 223 248 254 171 232 251 243 288 166 217 234 249 214 209 225 240 247 248 249 255 251 229 197 185 197 210 221 222 218 210 209 208 203 207 211 218 213 217 218 217 215 213 209 207 200 200 199 195 196 197 202 205 205 207 209 210 194 186 197 197 197 196 202 187 175 171
111 90 33 331 165 85 59 154 172 60 346 188 182 159 163 195 217 205 231 233 215 224 260 231 242 251 232 238 157 212 225 251 235 210 214 231 232 235 245 253 262 276 120 177 199 204 208 206 206 201 201 208 214 211 212 216 213 214 218 221 221 219 215 211 206 203 203 199 197 200 203 205 206 207 209 203 182 183 198 196 195 198 202 184 177 168
136 114 132 340 33 160 144 175 179 177 75 339 105 183 211 268 215 194 202 287 223 249 261 259 214 259 201 234 222 238 228 245 261 236 214 222 233 234 233 252 275 288 250 228 219 206 208 215 214 215 215 210 202 205 209 218 218 223 222 222 225 226 221 214 211 205 205 202 200 205 207 208 210 209 204 184 186 192 199 197 193 196 189 183 167 174
154 115 152 141 248 166 178 196 188 177 167 175 183 188 187 211 358 281 214 217 211 244 252 284 280 258 233 204 205 223 229 230 244 253 241 232 237 90 34 286 290 298 310 336 341 343 332 301 271 249 232 219 193 199 193 198 217 232 228 227 220 215 214 216 216 200 199 212 221 214 203 201 199 200 201 197 194 200 202 197 191 192 184 165 171 166
123 162 137 132 172 197 191 170 221 182 177 188 183 190 184 170 173 185 227 190 227 225 229 234 257 260 98 121 173 203 208 232 242 256 262 260 104 3 62 104 90 279 286 295 309 316 311 302 294 267 171 157 177 188 199 208 216 220 222 224 218 215 216 213 211 204 206 215 222 221 216 211 207 204 201 202 199 203 198 193 188 181 166 176 165 171
130 101 128 164 176 169 96 13 62 11 202 200 196 201 188 194 199 203 216 198 201 226 282 298 316 279 135 168 143 166 194 217 312 5 266 263 262 267 30 46 266 253 261 269 273 277 276 283 296 297 230 202 201 199 204 208 208 204 203 207 213 209 214 211 207 206 221 225 225 221 216 208 203 200 201 202 204 203 197 188 176 170 170 167 162 172
82 120 105 126 77 42 45 70 22 24 22 197 221 220 199 202 201 207 215 79 203 194 216 237 249 261 117 154 153 153 84 61 311 246 250 253 286 350 314 305 295 288 276 260 233 232 229 223 199 219 218 199 190 199 201 198 202 201 193 193 195 210 215 208 200 203 216 229 241 242 227 213 207 206 207 210 210 209 195 181 165 160 167 162 157 166
151 185 124 126 115 154 150 88 187 210 270 220 202 205 208 205 205 213 49 47 240 210 213 205 236 260 149 156 106 89 120 215 236 235 229 270 272 263 265 260 263 260 269 263 247 233 211 204 200 200 199 199 191 189 194 198 201 201 206 195 193 196 202 206 210 210 214 215 213 209 210 216 206 206 208 211 203 203 180 171 155 161 158 148 161 168
60 151 150 158 163 166 175 188 191 191 205 201 207 200 205 206 202 180 210 201 238 206 209 224 251 263 105 100 146 182 182 221 226 227 173 224 256 257 240 237 248 258 284 290 266 241 234 219 198 192 188 190 190 185 191 198 203 211 214 207 198 196 195 204 208 212 212 212 215 215 214 214 213 214 212 207 200 187 160 148 152 152 148 159 162 163
142 158 185 157 173 189 194 94 58 61 82 167 188 201 194 208 219 215 235 227 229 217 225 229 241 260 187 192 181 188 200 213 211 173 212 220 220 232 242 243 225 247 268 267 265 258 244 227 221 219 214 207 195 182 180 185 195 220 233 235 226 223 216 214 214 216 216 217 215 218 218 213 212 211 208 186 155 126 134 149 154 156 160 163 159 159
144 174 191 177 186 182 122 158 149 150 156 172 176 188 174 179 198 200 199 220 220 229 245 234 235 246 253 225 182 192 199 209 209 177 190 190 197 206 218 254 260 238 222 216 221 223 233 250 214 202 216 213 210 200 189 182 185 201 213 223 225 226 223 222 220 222 222 216 214 215 207 210 194 170 144 120 119 135 142 145 151 157 150 153 160 167
163 184 191 179 173 172 163 171 156 163 175 177 185 183 184 187 193 198 216 226 214 209 223 231 228 241 252 236 226 220 216 203 207 214 195 152 108 226 267 292 307 301 276 253 260 330 315 294 236 212 204 207 203 203 200 195 191 198 211 215 215 215 220 214 206 217 213 205 207 196 174 156 159 144 124 127 130 135 140 146 148 140 147 162 168 173
161 204 176 173 164 138 170 164 163 172 175 175 186 190 190 188 195 204 218 222 218 221 235 245 232 238 248 246 228 233 219 227 186 132 106 123 227 246 265 268 261 262 259 281 306 291 265 248 245 220 210 201 203 205 204 200 199 194 203 207 207 202 196 166 193 210 215 213 216 192 164 153 137 133 132 140 149 150 149 148 148 148 152 159 155 145
185 176 154 159 145 172 186 164 165 177 175 185 192 191 191 192 200 208 218 226 221 233 240 242 247 269 264 250 257 254 230 214 96 143 218 235 249 260 261 258 252 243 237 237 222 214 200 215 219 220 213 217 210 204 200 206 200 190 193 204 206 201 189 177 176 198 199 219 216 175 142 146 150 140 148 150 139 140 144 145 146 150 150 151 147 144
192 172 160 166 177 165 198 169 173 173 176 178 184 193 195 196 206 211 215 214 194 220 232 241 255 254 258 116 234 233 226 227 224 227 238 240 231 234 241 254 263 268 247 219 217 193 187 197 206 212 220 215 211 208 207 199 194 186 197 194 206 196 161 174 178 179 188 190 146 157 164 153 142 151 153 150 155 153 151 145 149 157 159 157 154 151
183 166 168 169 188 175 166 169 162 138 111 203 208 198 199 204 207 211 221 215 213 216 224 217 230 235 258 123 232 227 208 207 223 244 250 253 260 261 251 241 228 236 247 239 223 216 201 205 211 211 211 207 205 201 199 183 180 198 189 187 198 166 165 180 177 177 176 164 160 164 156 141 151 157 163 172 155 148 144 153 155 158 159 167 163 148
179 180 180 165 185 128 141 136 121 138 202 216 212 203 194 199 202 203 210 211 216 213 224 222 230 227 166 155 198 217 201 210 222 229 231 243 248 249 254 262 268 258 232 227 220 222 202 201 205 210 216 211 204 199 187 179 178 179 167 164 163 163 179 179 182 182 176 164 164 158 153 154 160 166 164 149 150 155 157 161 169 162 155 143 146 162
177 176 180 169 144 153 150 130 159 202 225 226 105 173 200 203 196 207 220 210 213 215 227 238 244 239 221 220 221 228 225 221 221 234 235 228 232 244 249 248 244 253 260 258 251 228 230 231 229 214 203 207 204 186 163 161 162 137 137 143 154 171 176 187 185 187 175 166 162 153 156 160 166 165 152 146 152 161 172 169 155 153 159 162 167 169
167 171 163 160 113 114 146 168 188 222 224 90 121 167 172 187 202 210 232 223 215 212 216 230 238 239 239 246 241 236 233 231 239 237 229 231 233 237 243 243 242 243 251 252 233 240 221 220 222 222 220 127 139 186 193 172 157 149 160 151 166 178 188 188 191 186 177 169 157 160 164 164 165 162 157 157 154 157 170 169 168 166 158 155 157 153
174 151 156 141 179 156 181 182 216 1 21 225 234 183 166 187 191 193 216 229 216 215 214 226 235 234 238 248 247 242 233 238 252 250 225 230 234 236 239 250 256 260 266 273 268 138 159 195 207 184 131 138 153 169 199 168 150 151 149 156 168 173 182 187 191 190 183 174 166 168 165 163 162 160 158 160 163 174 174 166 159 152 144 151 162 161
171 163 168 144 204 155 163 187 208 246 256 233 218 187 183 190 191 190 209 263 192 212 214 226 234 226 230 237 240 238 176 241 258 253 220 219 230 235 237 247 255 260 260 265 269 160 162 166 101 88 166 159 156 157 155 159 158 151 149 159 160 169 184 189 197 189 180 175 165 161 157 161 163 163 162 163 176 179 175 158 146 157 163 167 164 169
186 150 183 161 142 140 173 183 201 213 232 247 137 165 163 124 122 113 176 253 200 186 198 211 218 215 219 229 236 210 172 228 245 253 140 186 207 207 227 232 233 241 255 279 292 290 157 113 117 141 154 160 156 154 148 152 156 150 146 151 155 170 190 198 194 179 177 169 160 156 151 157 162 167 167 173 178 172 170 168 164 158 156 166 160 163
193 182 169 178 164 187 175 191 211 209 236 212 158 142 154 141 131 130 165 248 181 177 196 195 206 211 215 223 225 200 201 227 242 237 77 79 100 112 194 229 247 313 352 51 54 41 39 53 98 113 132 138 113 127 137 141 152 145 140 144 142 159 184 189 183 172 160 148 145 147 155 159 164 166 169 174 167 165 167 148 139 155 162 164 150 152
194 186 194 192 188 193 194 215 250 249 217 183 173 159 146 144 142 163 213 211 170 178 189 184 197 208 212 220 204 211 221 227 234 120 160 131 109 102 78 77 92 87 24 31 45 34 71 109 118 85 86 89 107 121 132 139 139 147 140 139 152 180 177 174 171 167 158 152 149 154 157 158 168 169 170 167 165 158 154 157 159 158 164 166 160 150
180 174 202 246 211 194 199 215 221 256 186 157 168 153 144 135 194 201 136 90 135 104 150 180 191 203 198 205 204 215 230 233 241 113 129 134 139 136 125 115 114 89 73 53 52 30 116 107 113 95 77 64 98 119 137 143 145 150 140 152 172 172 146 142 152 151 147 152 150 149 154 155 155 155 155 149 144 150 144 147 151 159 163 157 160 161
174 178 188 194 198 200 209 228 237 250 212 159 137 151 181 170 191 116 134 46 112 145 151 159 186 201 188 206 209 219 233 234 195 172 147 131 129 129 123 112 93 81 54 41 60 48 50 97 78 62 59 50 55 59 91 123 136 127 133 142 141 125 126 132 134 137 144 146 146 148 150 150 153 153 148 152 155 152 155 152 151 154 156 157 149 149
163 188 186 211 188 188 201 207 215 252 84 148 154 167 185 332 37 141 134 136 228 177 163 174 192 197 186 197 205 215 221 180 122 115 101 93 90 91 86 85 89 98 102 79 61 53 72 97 85 80 64 56 56 58 63 107 116 116 114 111 105 104 111 123 132 133 137 142 142 142 146 146 145 141 145 148 146 144 145 153 154 143 158 141 142 151
180 203 186 196 186 199 205 206 347 165 148 165 169 134 176 201 205 252 135 148 156 201 181 159 194 187 193 198 206 202 197 196 152 141 144 143 125 121 115 105 82 73 66 67 55 40 53 82 89 85 75 69 79 86 79 103 127 124 111 89 95 110 111 111 110 119 125 128 130 132 129 126 125 138 146 147 141 138 146 135 150 150 155 139 159 161
195 197 42 325 229 232 159 147 229 170 161 168 37 172 177 185 173 206 135 141 197 170 170 168 166 177 169 167 157 192 203 172 144 148 119 115 117 103 102 100 93 84 84 86 79 66 86 89 94 95 91 80 74 73 61 73 104 112 106 94 98 101 107 113 113 111 113 114 115 105 121 124 117 113 113 138 138 133 145 162 171 173 171 170 173 167
217 197 201 212 183 161 234 179 158 182 158 175 166 313 224 177 183 175 178 143 100 97 126 67 105 149 169 160 182 178 169 150 147 125 112 115 132 143 140 134 119 113 114 103 101 119 107 107 100 96 87 80 61 49 40 46 40 45 63 73 93 104 111 115 116 115 111 107 108 100 110 123 134 133 127 137 141 146 145 143 168 163 166 175 172 172
221 192 199 208 174 201 274 143 158 171 187 186 174 167 182 191 198 183 58 75 109 97 108 111 115 103 126 159 164 158 145 148 149 142 141 141 138 140 136 133 131 118 93 93 95 94 101 110 112 112 102 88 73 52 46 50 52 46 43 49 65 94 100 101 110 108 95 96 100 113 123 120 110 120 138 153 159 164 159 166 185 186 185 185 187 185
110 130 205 190 210 191 5 290 160 162 206 209 187 209 190 185 197 177 143 148 142 123 108 95 51 110 151 158 138 142 142 150 139 135 133 121 125 128 133 125 119 115 116 111 100 119 120 125 118 116 109 103 88 76 71 61 53 40 43 52 56 92 102 91 85 83 85 89 89 95 105 102 116 134 136 135 159 179 175 182 193 204 207 208 204 203
134 191 196 175 212 216 213 197 161 161 204 201 204 211 219 205 199 169 136 148 152 137 139 116 92 49 34 51 134 163 154 141 133 132 126 129 127 124 117 113 105 98 85 81 91 98 98 102 112 112 106 91 80 82 78 61 54 40 29 31 38 88 106 107 97 97 92 93 94 97 104 104 111 99 99 128 170 184 69 36 32 4 290 223 214 244
195 195 180 194 203 220 201 127 184 191 124 169 198 208 214 202 182 174 189 183 175 140 144 131 125 117 140 108 360 131 135 131 143 132 119 110 114 109 112 112 114 104 98 95 98 92 95 100 99 101 98 92 80 77 71 61 44 34 19 12 20 81 108 116 109 101 102 102 104 100 112 108 118 124 106 118 124 163 227 240 190 247 316 4 5 248